﻿測定場所 (Monitoring sites),日付 (Measurement date),時間 (Measurement time),線量率 最大値 (max) μGy/h,線量率 最小値 (min) μGy/h,線量率 平均値 (average) μGy/h,
江戸川 (Edogawa),2012-09-30,23:01～24:00,0.113,0.0996,0.105,
江戸川 (Edogawa),2012-09-30,22:01～23:00,0.110,0.0990,0.105,
江戸川 (Edogawa),2012-09-30,21:01～22:00,0.110,0.101,0.105,
江戸川 (Edogawa),2012-09-30,20:01～21:00,0.111,0.0999,0.106,
江戸川 (Edogawa),2012-09-30,19:01～20:00,0.114,0.0984,0.105,
江戸川 (Edogawa),2012-09-30,18:01～19:00,0.110,0.0958,0.103,
江戸川 (Edogawa),2012-09-30,17:01～18:00,0.111,0.0990,0.105,
江戸川 (Edogawa),2012-09-30,16:01～17:00,0.111,0.0993,0.105,
江戸川 (Edogawa),2012-09-30,15:01～16:00,0.113,0.0991,0.105,
江戸川 (Edogawa),2012-09-30,14:01～15:00,0.111,0.0993,0.105,
江戸川 (Edogawa),2012-09-30,13:01～14:00,0.111,0.0966,0.105,
江戸川 (Edogawa),2012-09-30,12:01～13:00,0.110,0.0973,0.104,
江戸川 (Edogawa),2012-09-30,11:01～12:00,0.109,0.0976,0.104,
江戸川 (Edogawa),2012-09-30,10:01～11:00,0.109,0.0994,0.104,
江戸川 (Edogawa),2012-09-30,09:01～10:00,0.112,0.100,0.105,
江戸川 (Edogawa),2012-09-30,08:01～09:00,0.114,0.100,0.106,
江戸川 (Edogawa),2012-09-30,07:01～08:00,0.111,0.0999,0.105,
江戸川 (Edogawa),2012-09-30,06:01～07:00,0.112,0.100,0.105,
江戸川 (Edogawa),2012-09-30,05:01～06:00,0.111,0.0997,0.105,
江戸川 (Edogawa),2012-09-30,04:01～05:00,0.111,0.0955,0.105,
江戸川 (Edogawa),2012-09-30,03:01～04:00,0.111,0.0998,0.106,
江戸川 (Edogawa),2012-09-30,02:01～03:00,0.113,0.0976,0.105,
江戸川 (Edogawa),2012-09-30,01:01～02:00,0.112,0.100,0.105,
江戸川 (Edogawa),2012-09-30,00:01～01:00,0.111,0.100,0.105,
江戸川 (Edogawa),2012-09-29,23:01～24:00,0.111,0.0995,0.105,
江戸川 (Edogawa),2012-09-29,22:01～23:00,0.111,0.0980,0.105,
江戸川 (Edogawa),2012-09-29,21:01～22:00,0.112,0.0986,0.104,
江戸川 (Edogawa),2012-09-29,20:01～21:00,0.112,0.0986,0.105,
江戸川 (Edogawa),2012-09-29,19:01～20:00,0.109,0.0998,0.104,
江戸川 (Edogawa),2012-09-29,18:01～19:00,0.109,0.0967,0.105,
江戸川 (Edogawa),2012-09-29,17:01～18:00,0.111,0.0994,0.104,
江戸川 (Edogawa),2012-09-29,16:01～17:00,0.113,0.0998,0.105,
江戸川 (Edogawa),2012-09-29,15:01～16:00,0.109,0.0992,0.104,
江戸川 (Edogawa),2012-09-29,14:01～15:00,0.110,0.0988,0.105,
江戸川 (Edogawa),2012-09-29,13:01～14:00,0.112,0.0975,0.104,
江戸川 (Edogawa),2012-09-29,12:01～13:00,0.109,0.0979,0.104,
江戸川 (Edogawa),2012-09-29,11:01～12:00,0.108,0.100,0.104,
江戸川 (Edogawa),2012-09-29,10:01～11:00,0.107,0.0996,0.104,
江戸川 (Edogawa),2012-09-29,09:01～10:00,0.109,0.0971,0.104,
江戸川 (Edogawa),2012-09-29,08:01～09:00,0.112,0.0991,0.104,
江戸川 (Edogawa),2012-09-29,07:01～08:00,0.110,0.0988,0.105,
江戸川 (Edogawa),2012-09-29,06:01～07:00,0.111,0.0999,0.105,
江戸川 (Edogawa),2012-09-29,05:01～06:00,0.113,0.101,0.105,
江戸川 (Edogawa),2012-09-29,04:01～05:00,0.114,0.0961,0.105,
江戸川 (Edogawa),2012-09-29,03:01～04:00,0.112,0.100,0.105,
江戸川 (Edogawa),2012-09-29,02:01～03:00,0.110,0.0994,0.105,
江戸川 (Edogawa),2012-09-29,01:01～02:00,0.113,0.0994,0.105,
江戸川 (Edogawa),2012-09-29,00:01～01:00,0.113,0.0989,0.105,
江戸川 (Edogawa),2012-09-28,23:01～24:00,0.112,0.0994,0.105,
江戸川 (Edogawa),2012-09-28,22:01～23:00,0.111,0.0962,0.104,
江戸川 (Edogawa),2012-09-28,21:01～22:00,0.110,0.100,0.105,
江戸川 (Edogawa),2012-09-28,20:01～21:00,0.112,0.0993,0.105,
江戸川 (Edogawa),2012-09-28,19:01～20:00,0.110,0.0984,0.104,
江戸川 (Edogawa),2012-09-28,18:01～19:00,0.111,0.0987,0.105,
江戸川 (Edogawa),2012-09-28,17:01～18:00,0.108,0.0978,0.104,
江戸川 (Edogawa),2012-09-28,16:01～17:00,0.114,0.0991,0.104,
江戸川 (Edogawa),2012-09-28,15:01～16:00,0.109,0.0993,0.105,
江戸川 (Edogawa),2012-09-28,14:01～15:00,0.111,0.0999,0.105,
江戸川 (Edogawa),2012-09-28,13:01～14:00,0.113,0.0997,0.106,
江戸川 (Edogawa),2012-09-28,12:01～13:00,0.115,0.0993,0.105,
江戸川 (Edogawa),2012-09-28,11:01～12:00,0.109,0.0987,0.104,
江戸川 (Edogawa),2012-09-28,10:01～11:00,0.113,0.100,0.105,
江戸川 (Edogawa),2012-09-28,09:01～10:00,0.114,0.100,0.105,
江戸川 (Edogawa),2012-09-28,08:01～09:00,0.111,0.0985,0.105,
江戸川 (Edogawa),2012-09-28,07:01～08:00,0.112,0.0981,0.104,
江戸川 (Edogawa),2012-09-28,06:01～07:00,0.110,0.0974,0.104,
江戸川 (Edogawa),2012-09-28,05:01～06:00,0.110,0.0956,0.105,
江戸川 (Edogawa),2012-09-28,04:01～05:00,0.111,0.100,0.105,
江戸川 (Edogawa),2012-09-28,03:01～04:00,0.111,0.0999,0.105,
江戸川 (Edogawa),2012-09-28,02:01～03:00,0.112,0.0994,0.105,
江戸川 (Edogawa),2012-09-28,01:01～02:00,0.111,0.0970,0.105,
江戸川 (Edogawa),2012-09-28,00:01～01:00,0.111,0.0979,0.104,
江戸川 (Edogawa),2012-09-27,23:01～24:00,0.113,0.0988,0.104,
江戸川 (Edogawa),2012-09-27,22:01～23:00,0.111,0.0982,0.105,
江戸川 (Edogawa),2012-09-27,21:01～22:00,0.114,0.0983,0.105,
江戸川 (Edogawa),2012-09-27,20:01～21:00,0.109,0.0978,0.104,
江戸川 (Edogawa),2012-09-27,19:01～20:00,0.110,0.0993,0.105,
江戸川 (Edogawa),2012-09-27,18:01～19:00,0.112,0.0972,0.104,
江戸川 (Edogawa),2012-09-27,17:01～18:00,0.110,0.0935,0.104,
江戸川 (Edogawa),2012-09-27,16:01～17:00,0.111,0.0974,0.104,
江戸川 (Edogawa),2012-09-27,15:01～16:00,0.109,0.0967,0.104,
江戸川 (Edogawa),2012-09-27,14:01～15:00,0.112,0.0979,0.104,
江戸川 (Edogawa),2012-09-27,13:01～14:00,0.110,0.0986,0.104,
江戸川 (Edogawa),2012-09-27,12:01～13:00,0.109,0.0960,0.104,
江戸川 (Edogawa),2012-09-27,11:01～12:00,0.111,0.0980,0.104,
江戸川 (Edogawa),2012-09-27,10:01～11:00,0.109,0.0986,0.104,
江戸川 (Edogawa),2012-09-27,09:01～10:00,0.113,0.0968,0.104,
江戸川 (Edogawa),2012-09-27,08:01～09:00,0.112,0.0988,0.104,
江戸川 (Edogawa),2012-09-27,07:01～08:00,0.110,0.0957,0.104,
江戸川 (Edogawa),2012-09-27,06:01～07:00,0.111,0.0989,0.104,
江戸川 (Edogawa),2012-09-27,05:01～06:00,0.108,0.0980,0.104,
江戸川 (Edogawa),2012-09-27,04:01～05:00,0.110,0.0982,0.103,
江戸川 (Edogawa),2012-09-27,03:01～04:00,0.108,0.0993,0.103,
江戸川 (Edogawa),2012-09-27,02:01～03:00,0.109,0.0982,0.103,
江戸川 (Edogawa),2012-09-27,01:01～02:00,0.110,0.0961,0.103,
江戸川 (Edogawa),2012-09-27,00:01～01:00,0.109,0.0995,0.104,
江戸川 (Edogawa),2012-09-26,23:01～24:00,0.111,0.0969,0.103,
江戸川 (Edogawa),2012-09-26,22:01～23:00,0.110,0.0980,0.104,
江戸川 (Edogawa),2012-09-26,21:01～22:00,0.109,0.0976,0.103,
江戸川 (Edogawa),2012-09-26,20:01～21:00,0.108,0.0970,0.103,
江戸川 (Edogawa),2012-09-26,19:01～20:00,0.110,0.0987,0.104,
江戸川 (Edogawa),2012-09-26,18:01～19:00,0.111,0.0988,0.104,
江戸川 (Edogawa),2012-09-26,17:01～18:00,0.111,0.0980,0.104,
江戸川 (Edogawa),2012-09-26,16:01～17:00,0.110,0.0965,0.103,
江戸川 (Edogawa),2012-09-26,15:01～16:00,0.109,0.0960,0.103,
江戸川 (Edogawa),2012-09-26,14:01～15:00,0.109,0.0992,0.103,
江戸川 (Edogawa),2012-09-26,13:01～14:00,0.112,0.0979,0.103,
江戸川 (Edogawa),2012-09-26,12:01～13:00,0.109,0.0980,0.103,
江戸川 (Edogawa),2012-09-26,11:01～12:00,0.111,0.0987,0.104,
江戸川 (Edogawa),2012-09-26,10:01～11:00,0.107,0.0975,0.103,
江戸川 (Edogawa),2012-09-26,09:01～10:00,0.110,0.0976,0.104,
江戸川 (Edogawa),2012-09-26,08:01～09:00,0.108,0.0974,0.104,
江戸川 (Edogawa),2012-09-26,07:01～08:00,0.109,0.0963,0.103,
江戸川 (Edogawa),2012-09-26,06:01～07:00,0.108,0.0973,0.103,
江戸川 (Edogawa),2012-09-26,05:01～06:00,0.109,0.0990,0.103,
江戸川 (Edogawa),2012-09-26,04:01～05:00,0.110,0.0977,0.103,
江戸川 (Edogawa),2012-09-26,03:01～04:00,0.109,0.0966,0.104,
江戸川 (Edogawa),2012-09-26,02:01～03:00,0.109,0.0986,0.103,
江戸川 (Edogawa),2012-09-26,01:01～02:00,0.110,0.0966,0.103,
江戸川 (Edogawa),2012-09-26,00:01～01:00,0.108,0.0957,0.102,
江戸川 (Edogawa),2012-09-25,23:01～24:00,0.108,0.0980,0.103,
江戸川 (Edogawa),2012-09-25,22:01～23:00,0.109,0.0983,0.103,
江戸川 (Edogawa),2012-09-25,21:01～22:00,0.108,0.0938,0.102,
江戸川 (Edogawa),2012-09-25,20:01～21:00,0.109,0.0976,0.103,
江戸川 (Edogawa),2012-09-25,19:01～20:00,0.110,0.0983,0.103,
江戸川 (Edogawa),2012-09-25,18:01～19:00,0.108,0.0978,0.103,
江戸川 (Edogawa),2012-09-25,17:01～18:00,0.109,0.0978,0.103,
江戸川 (Edogawa),2012-09-25,16:01～17:00,0.114,0.0987,0.103,
江戸川 (Edogawa),2012-09-25,15:01～16:00,0.109,0.0980,0.103,
江戸川 (Edogawa),2012-09-25,14:01～15:00,0.110,0.0970,0.103,
江戸川 (Edogawa),2012-09-25,13:01～14:00,0.110,0.0953,0.103,
江戸川 (Edogawa),2012-09-25,12:01～13:00,0.110,0.0976,0.103,
江戸川 (Edogawa),2012-09-25,11:01～12:00,0.108,0.0975,0.103,
江戸川 (Edogawa),2012-09-25,10:01～11:00,0.108,0.0946,0.102,
江戸川 (Edogawa),2012-09-25,09:01～10:00,0.110,0.0967,0.102,
江戸川 (Edogawa),2012-09-25,08:01～09:00,0.109,0.0970,0.102,
江戸川 (Edogawa),2012-09-25,07:01～08:00,0.107,0.0949,0.102,
江戸川 (Edogawa),2012-09-25,06:01～07:00,0.109,0.0957,0.102,
江戸川 (Edogawa),2012-09-25,05:01～06:00,0.108,0.0963,0.102,
江戸川 (Edogawa),2012-09-25,04:01～05:00,0.110,0.0993,0.104,
江戸川 (Edogawa),2012-09-25,03:01～04:00,0.116,0.100,0.108,
江戸川 (Edogawa),2012-09-25,02:01～03:00,0.118,0.101,0.112,
江戸川 (Edogawa),2012-09-25,01:01～02:00,0.126,0.111,0.118,
江戸川 (Edogawa),2012-09-25,00:01～01:00,0.125,0.110,0.117,
江戸川 (Edogawa),2012-09-24,23:01～24:00,0.114,0.0997,0.106,
江戸川 (Edogawa),2012-09-24,22:01～23:00,0.112,0.0995,0.103,
江戸川 (Edogawa),2012-09-24,21:01～22:00,0.113,0.0999,0.105,
江戸川 (Edogawa),2012-09-24,20:01～21:00,0.114,0.0993,0.108,
江戸川 (Edogawa),2012-09-24,19:01～20:00,0.111,0.0973,0.105,
江戸川 (Edogawa),2012-09-24,18:01～19:00,0.108,0.0957,0.103,
江戸川 (Edogawa),2012-09-24,17:01～18:00,0.110,0.0989,0.103,
江戸川 (Edogawa),2012-09-24,16:01～17:00,0.107,0.0985,0.103,
江戸川 (Edogawa),2012-09-24,15:01～16:00,0.108,0.0995,0.104,
江戸川 (Edogawa),2012-09-24,14:01～15:00,0.109,0.0955,0.104,
江戸川 (Edogawa),2012-09-24,13:01～14:00,0.110,0.0968,0.104,
江戸川 (Edogawa),2012-09-24,12:01～13:00,0.108,0.0980,0.103,
江戸川 (Edogawa),2012-09-24,11:01～12:00,0.108,0.0962,0.103,
江戸川 (Edogawa),2012-09-24,10:01～11:00,0.111,0.0957,0.103,
江戸川 (Edogawa),2012-09-24,09:01～10:00,0.110,0.0982,0.103,
江戸川 (Edogawa),2012-09-24,08:01～09:00,0.107,0.0977,0.102,
江戸川 (Edogawa),2012-09-24,07:01～08:00,0.106,0.0954,0.102,
江戸川 (Edogawa),2012-09-24,06:01～07:00,0.109,0.0964,0.102,
江戸川 (Edogawa),2012-09-24,05:01～06:00,0.108,0.0968,0.102,
江戸川 (Edogawa),2012-09-24,04:01～05:00,0.108,0.0968,0.103,
江戸川 (Edogawa),2012-09-24,03:01～04:00,0.110,0.0964,0.102,
江戸川 (Edogawa),2012-09-24,02:01～03:00,0.108,0.0963,0.103,
江戸川 (Edogawa),2012-09-24,01:01～02:00,0.108,0.0971,0.102,
江戸川 (Edogawa),2012-09-24,00:01～01:00,0.107,0.0972,0.103,
